Regional Weather Roundup
Issued by NWS Green Bay, WI

Home | Current Version | Previous Version | Graphics & Text | Print | Product List | Glossary Off
Versions: 1 2 3 4 5 6 7 8 9 10 11 12 13 14 15 16 17 18 19 20 21 22 23 24 25 26 27 28 29 30 31 32 33 34 35 36 37 38 39 40 41 42 43 44 45 46 47 48 49 50

000
ASUS43 KGRB 292111
RWRGRB

NORTH-CENTRAL AND NORTHEAST WISCONSIN REGIONAL WEATHER ROUNDUP
NATIONAL WEATHER SERVICE GREEN BAY WI
400 PM CDT WED JUL 29 2015

WIZ005-009-010>012-018-019-292200-
NORTH CENTRAL WISCONSIN

CITY           SKY/WX    TMP DP  RH WIND       PRES   REMARKS
IRONWOOD       CLOUDY    70  57  64 SW14      29.79S
MANITOWISH WTR CLOUDY    73  55  53 W18G24    29.86S
ARBOR VITAE    PTSUNNY   74  56  52 W13G25    29.87R
EAGLE RIVER    CLOUDY    74  51  45 W12G24    29.86R
LAND O LAKES   CLOUDY    73  52  48 W9G28     29.86S
RHINELANDER    CLOUDY    76  53  44 W21G28    29.88R
PHILLIPS       CLOUDY    75  55  49 W13G23    29.87S
ANTIGO         PTSUNNY   78  54  43 W18G31    29.87S
TOMAHAWK       PTSUNNY   76  53  44 W20G26    29.89S
MERRILL        NOT AVBL
$$

WIZ013-073-292200-
NORTHEAST WISCONSIN

CITY           SKY/WX    TMP DP  RH WIND       PRES   REMARKS
IRON MOUNTAIN  PTSUNNY   82  53  36 W18G33    29.79S
MARINETTE      SUNNY     84  52  32 W8G25     29.78F
OCONTO         SUNNY     86  52  30 W18G25    29.81S
$$

WIZ017-030-035>037-045-292200-
CENTRAL WISCONSIN

CITY           SKY/WX    TMP DP  RH WIND       PRES   REMARKS
MEDFORD        PTSUNNY   77  55  47 W16G24    29.90S
WAUSAU         SUNNY     82  51  34 W24G39    29.87S
MOSINEE        SUNNY     81  52  36 W25G35    29.90S
MARSHFIELD     SUNNY     81  50  33 W21G36    29.91S
WISC RAPIDS    SUNNY     84  48  28 W21G33    29.92S
STEVENS POINT  SUNNY     80  51  36 W18G32    29.90S
WAUPACA        SUNNY     86  46  25 W20G33    29.88F
SHAWANO        SUNNY     85  50  29 W14G25    29.84F
CLINTONVILLE   SUNNY     86  46  25 W17G24    29.85F
$$

WIZ038-039-048-051-292200-
FOX VALLEY

CITY           SKY/WX    TMP DP  RH WIND       PRES   REMARKS
NWS GREEN BAY  SUNNY     85  51  31 W18G31    29.85F
APPLETON       MOSUNNY   82  46  28 W17G30    29.88F
OSHKOSH        SUNNY     84  51  31 W12G23    29.88F
FOND DU LAC    SUNNY     84  50  30 W16G29    29.90F
$$

WIZ022-050-052-292200-
EAST CENTRAL WISCONSIN

CITY           SKY/WX    TMP DP  RH WIND       PRES   REMARKS
STURGEON BAY   SUNNY     82  52  34 W17G28    29.84F
MANITOWOC      SUNNY     85  50  29 MISG      29.86F
SHEBOYGAN      SUNNY     85  52  32 W18G26    29.89F
$$

LMZ563-521-522-541>543-292200-
LAKESHORE

STATION/POSITION TIME  TEMP    WIND        PRES    VSBY  WAVE
                       AIR SEA DIR/SP/G                  HT/PER
                 (UTC) (F)     (DEG/KT/KT) (MB)    (MI)  (FT/S)
SHEBOYGAN LKSHOR 2100   83     270/ 17/ 22 1011.5F
KEWAUNEE LKSHORE 2018   83                   N/A
ALGOMA MARINA    2012          260/ 15/ 24   N/A
NORTHPORT PIER   2000   83     260/  9/ 15 1008.5F
N MID LAKE BUOY  2050   74 70  210/ 16/ 19 1008.0F         3/ 5
S GREEN BAY BUOY 2100   73 69  240/ 16/ 17 1011.2
SISTER BAY LKSHO 2044   83     250/ 17/ 20   N/A
STURGEON BAY CG  2056   84     230/ 10     1010.7      6   2
CHAMBERS ISLAND  2000   80     210/  9/ 16 1008.8F
MENOMINEE LKSHOR 2018   82                   N/A
$$



USA.gov is the U.S. government's official web portal to all federal, state and local government web resources and services.